sat.trackr.live / text

‹ back to catalog

STARLINK-5476

NORAD 57258 · 2023-094AS

PAYLOAD ACTIVE UNKNOWN

§ Identity

Operator
Country
US
Launch date
2023-07-07
Launch site
AFWTR
Launch vehicle
Mass (kg)
RCS (m²)

Purposes: comms

External: N2YO · Heavens-Above · Gunter

§ Orbital elements

Epoch: 2026-09-20T17:57:46.238976Z

Period
94.27 min
Inclination
43.0030°
Eccentricity
0.0001204
Mean motion
15.27579726 rev/d
Perigee alt
482.2 km
Apogee alt
483.9 km
Semi-major
6,861.2 km
B*
1.4870e-5
RAAN
358.1310°
Arg perigee
271.5346°
Mean anomaly
88.5368°
Rev number
17,707

§ Raw data

STARLINK-54761 57258U 23094AS  26263.74845184  .00000147  00000+0  14870-4 0  99902 57258  43.0030 358.1310 0001204 271.5346  88.5368 15.27579726177076

JSON: /api/v1/satellites/57258 · /tle

For live sub-satellite position, see the globe view (requires WebGL).

§ Visibility from observer

Set your observer location to see the next 7 days of passes ≥ 10°. The values pass through the URL so the page stays shareable.

No JS? Fill the form by hand. The geolocation button needs JavaScript.